Weather History for Prague, Czech Republic

Change the Weather History Date:

Thursday, February 21, 2013

  Actual Average Record
Temperature  
Mean Temperature 20 °F -  
Max Temperature 24 °F 43 °F 55 °F (1998)
Min Temperature 17 °F 28 °F 12 °F (2011)
Degree Days  
Heating Degree Days 44    
Moisture  
Dew Point 19 °F    
Average Humidity 88    
Maximum Humidity 100    
Minimum Humidity 71    
Precipitation  
Precipitation 0.00 in 0.03 in - ()
Sea Level Pressure  
Sea Level Pressure 30.07 in    
Wind  
Wind Speed 5 mph ()    
Max Wind Speed 11 mph    
Max Gust Speed -    
Visibility 4.3 miles    
Events Snow    
Averages and records for this station are not official NWS values.
T = Trace of Precipitation, MM = Missing Value Source: Averaged Metar Reports

Daily Weather History Graph

Daily Weather History Graph

Search for Another Location

Airport:

Trip Planner

Search our weather history database for the weather conditions in past years. The results will help you decide how hot, cold, wet, or windy it might be!

Date:

Astronomy

Feb. 21, 2013 Rise Set
Actual Time 7:02 AM CET 5:31 PM CET
Civil Twilight 6:29 AM CET 6:04 PM CET
Nautical Twilight 5:51 AM CET 6:42 PM CET
Astronomical Twilight 5:14 AM CET 7:19 PM CET
Moon 1:14 PM CET (2/21) 4:11 AM CET (2/21)
Length of Visible Light 11h 35m
Length of Day
10h 29m
Waxing Gibbous, 82% of the Moon is Illuminated
Feb 21
Waxing Gibbous
Feb 25
Full
Mar 4
Last Quarter
Mar 11
New
Mar 19
First Quarter

Hourly Weather History & Observations

Time (CET) Temp. Windchill Dew Point Humidity Pressure Visibility Wind Dir Wind Speed Gust Speed Precip Events Conditions
12:00 AM 21.2 °F 13.6 °F 19.4 °F 93% 30.09 in 5.0 mi NW 5.8 mph - N/A Snow Light Snow Showers
12:30 AM 23.0 °F 15.8 °F 21.2 °F 93% 30.09 in 3.7 mi NW 5.8 mph - N/A Snow Light Snow Showers
1:00 AM 21 °F - 20 °F 92% 30.19 in 4 mi NNW 6.7 mph - - Snow Light Snow
1:30 AM 21.2 °F 14.9 °F 21.2 °F 100% 30.09 in 3.1 mi NW 4.6 mph - N/A Snow Light Snow
2:00 AM 21.2 °F 16.4 °F 19.4 °F 93% 30.09 in 3.1 mi NNW 3.5 mph - N/A Snow Light Snow
2:30 AM 21.2 °F 16.4 °F 19.4 °F 93% 30.09 in 3.1 mi NW 3.5 mph - N/A Snow Light Snow
2:36 AM 19.4 °F 14.3 °F 19.4 °F 100% 30.09 in 2.8 mi NW 3.5 mph - N/A Snow Light Snow
2:51 AM 21.2 °F - 19.4 °F 93% 30.09 in 3.1 mi NW 2.3 mph - N/A Snow Light Snow
3:00 AM 21.2 °F 16.4 °F 19.4 °F 93% 30.09 in 3.7 mi NW 3.5 mph - N/A Snow Light Snow
3:17 AM 23.0 °F 14.7 °F 21.2 °F 93% 30.06 in 3.7 mi NNW 6.9 mph - N/A Snow Light Snow
3:30 AM 23.0 °F 15.8 °F 21.2 °F 93% 30.06 in 3.7 mi NNW 5.8 mph - N/A Snow Light Snow
4:00 AM 19.4 °F 11.5 °F 17.6 °F 93% 30.06 in 4.3 mi NW 5.8 mph - N/A   Mostly Cloudy
4:30 AM 17.6 °F - 17.6 °F 100% 30.06 in 3.7 mi Variable 2.3 mph - N/A   Mostly Cloudy
5:00 AM 21.2 °F 14.9 °F 19.4 °F 93% 30.06 in 6.2 mi NNW 4.6 mph - N/A   Mostly Cloudy
5:30 AM 21.2 °F 16.4 °F 19.4 °F 93% 30.06 in 5.0 mi North 3.5 mph - N/A Snow Light Snow
5:37 AM 21.2 °F 13.6 °F 19.4 °F 93% 30.06 in 1.4 mi North 5.8 mph - N/A Snow Snow
5:45 AM 21.2 °F 14.9 °F 19.4 °F 93% 30.06 in - North 4.6 mph - N/A Snow Light Snow
6:00 AM 21.2 °F 16.4 °F 19.4 °F 93% 30.06 in 3.7 mi North 3.5 mph - N/A Snow Light Snow
6:30 AM 21.2 °F 16.4 °F 19.4 °F 93% 30.06 in 3.7 mi NNW 3.5 mph - N/A Snow Light Snow
6:44 AM 21.2 °F 16.4 °F 19.4 °F 93% 30.06 in 2.5 mi NW 3.5 mph - N/A Snow Light Snow
7:00 AM 21 °F - 19 °F 89% 30.18 in 2 mi NNW 4.5 mph - - Snow Light Snow
7:00 AM 21.2 °F 16.4 °F 19.4 °F 93% 30.06 in 2.2 mi NNW 3.5 mph - N/A Snow Light Snow
7:30 AM 19.4 °F - 17.6 °F 93% 30.06 in 3.7 mi Variable 2.3 mph - N/A   Mostly Cloudy
7:51 AM 19.4 °F 12.8 °F 17.6 °F 93% 30.09 in 2.8 mi NW 4.6 mph - N/A Snow Light Snow
8:00 AM 19.4 °F 12.8 °F 17.6 °F 93% 30.09 in 3.1 mi NW 4.6 mph - N/A   Mostly Cloudy
8:30 AM 21.2 °F 13.6 °F 19.4 °F 93% 30.09 in 3.7 mi NW 5.8 mph - N/A   Mostly Cloudy
8:52 AM 21.2 °F 14.9 °F 19.4 °F 93% 30.09 in 2.2 mi NNW 4.6 mph - N/A Snow Light Snow Showers
9:00 AM 21.2 °F 14.9 °F 19.4 °F 93% 30.09 in 1.7 mi NNW 4.6 mph - N/A   Mostly Cloudy
9:05 AM 21.2 °F 13.6 °F 19.4 °F 93% 30.09 in 3.7 mi NNW 5.8 mph - N/A Snow Light Snow Showers
9:30 AM 21.2 °F 13.6 °F 19.4 °F 93% 30.09 in 5.6 mi NNW 5.8 mph - N/A   Partly Cloudy
10:00 AM 21.2 °F 13.6 °F 19.4 °F 93% 30.09 in 6.2 mi NNW 5.8 mph - N/A   Partly Cloudy
10:30 AM 23.0 °F 15.8 °F 19.4 °F 86% 30.09 in 6.2 mi NNW 5.8 mph - N/A   Partly Cloudy
11:00 AM 23.0 °F 14.7 °F 19.4 °F 86% 30.09 in 6.2 mi NW 6.9 mph - N/A   Partly Cloudy
11:30 AM 23.0 °F 15.8 °F 19.4 °F 86% 30.09 in 6.2 mi NNW 5.8 mph - N/A   Scattered Clouds
11:45 AM 24.8 °F 17.9 °F 19.4 °F 80% 30.09 in 6.2 mi NW 5.8 mph - N/A Snow Light Snow Showers
12:00 PM 24.8 °F 17.9 °F 19.4 °F 80% 30.09 in 3.7 mi NNW 5.8 mph - N/A Snow Light Snow Showers
12:30 PM 24.8 °F 16.1 °F 19.4 °F 80% 30.09 in 5.0 mi NNW 8.1 mph - N/A   Mostly Cloudy
1:00 PM 24 °F - 18 °F 71% 30.18 in 5 mi NNW 6.7 mph - - Snow Light Snow Showers
1:00 PM 23.0 °F 14.7 °F 19.4 °F 86% 30.06 in 5.0 mi NNW 6.9 mph - N/A Snow Light Snow Showers
1:30 PM 23.0 °F 15.8 °F 19.4 °F 86% 30.06 in 6.2 mi NNW 5.8 mph - N/A   Overcast
1:42 PM 24.8 °F 16.9 °F 19.4 °F 80% 30.06 in 3.1 mi NW 6.9 mph - N/A Snow Light Snow Showers
2:00 PM 24.8 °F 16.9 °F 19.4 °F 80% 30.06 in 3.1 mi NNW 6.9 mph - N/A Snow Light Snow Showers
2:04 PM 23.0 °F 14.7 °F 19.4 °F 86% 30.06 in 2.2 mi NW 6.9 mph - N/A Snow Snow
2:30 PM 23.0 °F 14.7 °F 19.4 °F 86% 30.06 in 3.1 mi NNW 6.9 mph - N/A Snow Light Snow Showers
3:00 PM 24.8 °F 17.9 °F 19.4 °F 80% 30.04 in 4.3 mi NNW 5.8 mph - N/A Snow Light Snow Showers
3:30 PM 24.8 °F 16.1 °F 19.4 °F 80% 30.04 in 5.6 mi North 8.1 mph - N/A Snow Light Snow Showers
4:00 PM 23.0 °F 13.1 °F 19.4 °F 86% 30.04 in 4.3 mi North 9.2 mph - N/A Snow Light Snow
4:30 PM 23.0 °F 14.7 °F 19.4 °F 86% 30.04 in 2.2 mi North 6.9 mph - N/A Snow Snow
5:00 PM 23.0 °F 13.1 °F 19.4 °F 86% 30.04 in 2.2 mi NNE 9.2 mph - N/A Snow Snow
5:07 PM 23.0 °F 13.1 °F 19.4 °F 86% 30.04 in 3.1 mi NNE 9.2 mph - N/A Snow Light Snow
5:15 PM 23.0 °F 13.1 °F 19.4 °F 86% 30.04 in 3.7 mi NNE 9.2 mph - N/A Snow Light Snow
5:30 PM 23.0 °F 13.1 °F 19.4 °F 86% 30.04 in 5.0 mi NNE 9.2 mph - N/A Snow Light Snow
6:00 PM 23.0 °F 14.7 °F 17.6 °F 80% 30.04 in 5.0 mi NNE 6.9 mph - N/A Snow Light Snow
6:30 PM 23.0 °F 14.7 °F 17.6 °F 80% 30.06 in 5.0 mi NNE 6.9 mph - N/A Snow Light Snow
7:00 PM 23 °F - 18 °F 73% 30.15 in 6 mi NNE 11.2 mph - - Snow Light Snow
7:00 PM 23.0 °F 14.7 °F 17.6 °F 80% 30.04 in 6.2 mi NNE 6.9 mph - N/A   Overcast
7:30 PM 23.0 °F 13.9 °F 19.4 °F 86% 30.04 in 6.2 mi NNE 8.1 mph - N/A   Mostly Cloudy
8:00 PM 23.0 °F 13.9 °F 19.4 °F 86% 30.04 in 6.2 mi NNE 8.1 mph - N/A Snow Light Snow
8:30 PM 23.0 °F 12.4 °F 17.6 °F 80% 30.04 in 6.2 mi NNE 10.4 mph - N/A Snow Light Snow
9:00 PM 21.2 °F 12.6 °F 17.6 °F 86% 30.04 in 6.2 mi NNE 6.9 mph - N/A Snow Light Snow
9:30 PM 21.2 °F 12.6 °F 17.6 °F 86% 30.04 in 6.2 mi NNE 6.9 mph - N/A Snow Light Snow
10:00 PM 21.2 °F 13.6 °F 17.6 °F 86% 30.04 in 6.2 mi North 5.8 mph - N/A Snow Light Snow
10:30 PM 21.2 °F 13.6 °F 17.6 °F 86% 30.04 in 6.2 mi North 5.8 mph - N/A   Overcast
11:00 PM 21.2 °F 14.9 °F 17.6 °F 86% 30.04 in 6.2 mi North 4.6 mph - N/A Snow Light Snow
11:30 PM 21.2 °F 13.6 °F 17.6 °F 86% 30.04 in 6.2 mi North 5.8 mph - N/A Snow Light Snow